{"data":{"norad_id":48688,"intl_designator":"2021-044BC","name":"STARLINK-2742","alt_names":[],"object_type":"PAYLOAD","status":"ACTIVE","operator":null,"country":"US","launch_date":"2021-05-26","launch_site_code":"AFETR","launch_vehicle":null,"mission":null,"orbit_class":"UNKNOWN","rcs_meters":null,"size_class":null,"mass_kg":null,"dimensions":null,"purposes":["comms"],"wikipedia_slug":null,"has_3d_model":false,"image_url":null,"decayed_at":null,"tle_current":{"epoch":"2026-09-20T13:01:13.512864Z","epoch_age_seconds":126692,"freshness":"FRESH","line1":"1 48688U 21044BC  26263.54251751  .00000046  00000+0  13280-4 0  9991","line2":"2 48688  53.1602 238.3776 0002023  50.8840 309.2341 15.31692687294354","mean_motion":15.31692687,"eccentricity":0.0002023,"inclination_deg":53.1602,"raan_deg":238.3776,"arg_perigee_deg":50.884,"mean_anomaly_deg":309.2341,"bstar":1.328e-5,"rev_number":29435,"period_min":94.013636822959,"perigee_km":469.37626275862,"apogee_km":472.14732721107,"semimajor_km":6848.8987949848,"source":"CELESTRAK","updated_at":"2026-09-21T09:00:32.313566Z"}}}